Regional Weather Roundup
Issued by NWS Wilmington, NC

Home | Current Version | Previous Version | Text Only | Print | Product List | Glossary On
Versions: 1 2 3 4 5 6 7 8 9 10 11 12 13 14 15 16 17 18 19 20 21 22 23 24 25 26 27 28 29 30 31 32 33 34 35 36 37 38 39 40 41 42 43 44 45 46 47 48 49 50
000
ASUS42 KILM 281013
RWRILM
RWRILM
REGIONAL HOURLY WEATHER ROUNDUP
NATIONAL WEATHER SERVICE WILMINGTON NC
500 AM EST TUE FEB 28 2017

NOTE: "FAIR" INDICATES FEW OR NO CLOUDS BELOW 12,000 FEET WITH NO
SIGNIFICANT WEATHER AND/OR OBSTRUCTIONS TO VISIBILITY.

...............WFO WILMINGTON COUNTY WARNING AREA...............

......COASTAL NC AND SC COUNTIES......

CITY           SKY/WX    TMP DP  RH WIND       PRES   REMARKS
WILMINGTON     CLOUDY    58  56  93 NE3       30.30S
N MYRTLE BEACH LGT RAIN  61  61 100 NW3       30.29R
MYRTLE BEACH   CLOUDY    63  61  93 N5        30.29R

......INLAND NC AND SC COUNTIES.......

CITY           SKY/WX    TMP DP  RH WIND       PRES   REMARKS
LUMBERTON      CLOUDY    53  52  96 CALM      30.28F
ELIZABETHTOWN  CLOUDY    54  54 100 CALM      30.29F
WHITEVILLE     CLOUDY    55  53  91 CALM      30.28F
FLORENCE       CLOUDY    58  54  86 N3        30.29F
DARLINGTON     MOCLDY    55  51  86 N3        30.29F
KINGSTREE      CLOUDY    59  54  82 CALM      30.28S
HARTSVILLE     FAIR      54  48  82 E3        30.28F
BENNETTSVILLE  NOT AVBL
CONWAY         CLOUDY    59  57  94 CALM      30.28S
GEORGETOWN     MOCLDY    61  61 100 CALM      30.27S
MARION         CLOUDY    55  52  88 NE5       30.29S

....................REST OF NORTH CAROLINA......................

.........EASTERN NC.........

CITY           SKY/WX    TMP DP  RH WIND       PRES   REMARKS
CAPE HATTERAS  CLOUDY    63  56  78 NW5       30.34S
JACKSONVILLE   CLOUDY    54  54 100 NE3       30.31F
MOREHEAD CITY  LGT RAIN  58  57  97 CALM      30.33F
KENANSVILLE    CLOUDY    52  50  93 CALM      30.31F
NEW BERN       CLOUDY    52  51  97 CALM      30.33F
ELIZABETH CITY CLOUDY    53  51  93 CALM      30.32F

.........CENTRAL NC.........

CITY           SKY/WX    TMP DP  RH WIND       PRES   REMARKS
RALEIGH DURHAM PTCLDY    53  47  79 CALM      30.30S
ROCKY MOUNT    CLEAR     50  48  93 CALM      30.30S
ROANOKE RAPIDS NOT AVBL
FAYETTEVILLE     N/A    N/A N/A N/A MISG        N/A
HOFFMAN        MOCLDY    47  45  92 CALM      30.29S

.........WESTERN NC.........

CITY           SKY/WX    TMP DP  RH WIND       PRES   REMARKS
CHARLOTTE      CLEAR     45  35  68 CALM      30.29S
GREENSBORO     CLEAR     48  42  80 SW5       30.27F
HICKORY        NOT AVBL
BOONE          NOT AVBL
ASHEVILLE      NOT AVBL

.....................REST OF SOUTH CAROLINA.....................

.........EASTERN SC.........

CITY           SKY/WX    TMP DP  RH WIND       PRES   REMARKS
CHARLESTON     CLOUDY    62  60  93 S5        30.27R
BEAUFORT MCAS  MOCLDY    65  64  97 CALM      30.26F
HILTON HEAD    MOCLDY    64  63  94 CALM      30.27S

.........CENTRAL SC.........

CITY           SKY/WX    TMP DP  RH WIND       PRES   REMARKS
COLUMBIA       PTCLDY    61  53  75 E3        30.27S
ORANGEBURG     PTCLDY    61  55  81 E3        30.27F
SUMTER SHAW    PTCLDY    57  52  84 NE5       30.25F

.........WESTERN SC.........

CITY           SKY/WX    TMP DP  RH WIND       PRES   REMARKS
GREENVILLE     NOT AVBL
ROCK HILL      CLEAR     44  39  82 CALM      30.29S
ANDERSON       CLEAR     48  34  58 NE5       30.27F
CLEMSON        NOT AVBL
GREENWOOD      CLEAR     45  37  73 CALM      30.29S


...................COASTAL AND OFFSHORE REPORTS..................

................LOCAL PIERS AND NC RESERVE................


STATION/POSITION TIME  SKY/WX   TEMP    WIND        PRES    VSBY
                                AIR SEA DIR/SP/G
                 (UTC)          (F)     (DEG/KT/KT) (MB)    (MI)
JOHNY MRCER PIER 0942            61 60   50/  7/  9 1024.8R
NC RESRV MASNBRO 0845            60      70/  4     1025.0
OCEAN CREST PIER NOT AVBL
SPRINGMAID  PIER 0948                               1024.6R


................COASTAL AND OFFSHORE BUOYS................


STATION/POSITION TIME  SKY/WX   TEMP    WIND        PRES    VSBY
                                AIR SEA DIR/SP/G
                 (UTC)          (F)     (DEG/KT/KT) (MB)    (MI)
DIMNDSHOAL 41025 0950            69 71  210/ 14/ 17 1027.3R
WVE H/P(F/S)=  4/ 5 SWL H/P/D(F/S/D)=  2/110/ 8

CAPE LOOKOUT     1000            62     290/  6/  7 1027.0F
ONSLOW BAY 41036 NOT AVBL
ONSLOW BAY 41064 0908            67     170/  8/ 12 1026.2F
ONSLOW BAY 41159 0943               65                N/A
WVE H/P(F/S)=  5/ 5

MASNBO INL 41110 0959               58                N/A
WVE H/P(F/S)=  4/ 6

WILM HARBR 41108 0947               59                N/A
WVE H/P(F/S)=  4/ 5

27SE WRITB 41037 NOT AVBL
FRYING PAN 41013 0950            72 71  160/ 16/ 19 1024.8F
WVE H/P(F/S)=  5/ 5 SWL H/P/D(F/S/D)=  2/120/ 8

SUNST NRSH 41024 0908            62 60   30/  6/ 10 1024.9F
CAPRS NRSH 41029 0908            65 61  330/  4/  8 1024.5R
EDISTO     41004 0950            71 68  180/ 17/ 21 1023.0F
WVE H/P(F/S)=  6/ 6 SWL H/P/D(F/S/D)=  2/230/16



..........OFFSHORE BUOYS BEYOND 100 NM OFFSHORE...........
.....IN A TRIANGLE---HAT TO BERMUDA TO BAHAMAS TO HAT.....


STATION/POSITION TIME  SKY/WX   TEMP    WIND        PRES    VSBY
                                AIR SEA DIR/SP/G
                 (UTC)          (F)     (DEG/KT/KT) (MB)    (MI)
150E HAT   41001 NOT AVBL
W BERMUDA  41048 0850            67 69  100/ 12/ 14 1029.2
WVE H/P(F/S)=  5/ 7 SWL H/P/D(F/S/D)=  3/ 70/ 7

ATLANTIC S 41049 0950            71 73   60/ 17/ 19 1026.6R
WVE H/P(F/S)=  5/ 5 SWL H/P/D(F/S/D)=  2/ 20/ 9

E BAHAMAS  41046 0950            76 77   80/ 16/ 17 1020.5R
WVE H/P(F/S)=  4/ 6 SWL H/P/D(F/S/D)=  3/ 6

NE BAHAMAS 41047 0950            72 74   70/ 14/ 17 1025.8R
WVE H/P(F/S)=  5/ 6 SWL H/P/D(F/S/D)=  2/ 70/ 8

120E CANVRL41010 NOT AVBL

END



USA.gov is the U.S. government's official web portal to all federal, state and local government web resources and services.